• In Hungary
  • List of Countries
  • For 7 days
  • Water Temperature
  • Satellite Maps
  • Weather Map
  • News
  • Weather Widgets
  • user-avatar
    Login

    Hourly Weather Tarija

    Today, 25 May, Friday

    Time Temperature Precipitation Wind Pressure Humidity
    00:00 +10°C° 0 mm 1 mps 597 mmHg 78%
    01:00 +10°C° 0 mm 1 mps 597 mmHg 78%
    02:00 +10°C° 0 mm 1 mps 597 mmHg 77%
    03:00 +10°C° 0 mm 1 mps 597 mmHg 77%
    04:00 +10°C° 0 mm 1 mps 597 mmHg 77%
    05:00 +9°C° 0 mm 1 mps 596 mmHg 77%
    06:00 +11°C° 0 mm 1 mps 597 mmHg 71%
    07:00 +12°C° 0 mm 1 mps 598 mmHg 66%
    08:00 +13°C° 0 mm 1 mps 599 mmHg 60%
    09:00 +15°C° 0 mm 1 mps 600 mmHg 54%
    10:00 +18°C° 0 mm 1 mps 600 mmHg 47%
    11:00 +20°C° 0 mm 1 mps 601 mmHg 40%
    12:00 +20°C° 0 mm 2 mps 600 mmHg 40%
    13:00 +20°C° 0 mm 2 mps 600 mmHg 39%
    14:00 +21°C° 0 mm 3 mps 600 mmHg 39%
    15:00 +20°C° 0 mm 3 mps 599 mmHg 44%
    16:00 +19°C° 0 mm 2 mps 598 mmHg 49%
    17:00 +18°C° 0 mm 2 mps 598 mmHg 54%
    18:00 +16°C° 0 mm 2 mps 598 mmHg 63%
    19:00 +15°C° 0 mm 2 mps 597 mmHg 72%
    20:00 +13°C° 0 mm 1 mps 597 mmHg 81%
    21:00 +12°C° 0 mm 1 mps 597 mmHg 82%
    22:00 +12°C° 0 mm 2 mps 597 mmHg 82%
    23:00 +12°C° 0 mm 2 mps 597 mmHg 83%

    Tomorrow, 26 May, Saturday

    Time Temperature Precipitation Wind Pressure Humidity
    00:00 +12°C° 0 mm 2 mps 597 mmHg 82%
    01:00 +12°C° 0 mm 2 mps 596 mmHg 81%
    02:00 +12°C° 0 mm 2 mps 596 mmHg 80%
    03:00 +12°C° 0 mm 2 mps 596 mmHg 77%
    04:00 +12°C° 0 mm 2 mps 595 mmHg 75%
    05:00 +12°C° 0 mm 2 mps 595 mmHg 72%
    06:00 +12°C° 0 mm 3 mps 596 mmHg 66%
    07:00 +13°C° 0 mm 3 mps 596 mmHg 59%
    08:00 +14°C° 0 mm 3 mps 597 mmHg 52%
    09:00 +17°C° 0 mm 3 mps 598 mmHg 43%
    10:00 +20°C° 0 mm 2 mps 598 mmHg 34%
    11:00 +23°C° 0 mm 2 mps 599 mmHg 26%
    12:00 +24°C° 0 mm 2 mps 598 mmHg 25%
    13:00 +25°C° 0 mm 2 mps 598 mmHg 24%
    14:00 +25°C° 0 mm 2 mps 597 mmHg 23%
    15:00 +24°C° 0 mm 2 mps 597 mmHg 30%
    16:00 +23°C° 0 mm 2 mps 596 mmHg 37%
    17:00 +21°C° 0 mm 2 mps 596 mmHg 44%
    18:00 +19°C° 0 mm 2 mps 595 mmHg 57%
    19:00 +18°C° 0 mm 1 mps 595 mmHg 69%
    20:00 +15°C° 0 mm 1 mps 595 mmHg 82%
    21:00 +15°C° 0 mm 1 mps 595 mmHg 82%
    22:00 +15°C° 0 mm 1 mps 595 mmHg 81%
    23:00 +14°C° 0 mm 1 mps 596 mmHg 80%

    Day after tomorrow, 27 May, Sunday

    Time Temperature Precipitation Wind Pressure Humidity
    00:00 +14°C° 0 mm 1 mps 595 mmHg 75%
    01:00 +14°C° 0 mm 1 mps 595 mmHg 70%
    02:00 +13°C° 0 mm 1 mps 595 mmHg 65%
    03:00 +13°C° 0 mm 1 mps 595 mmHg 63%
    04:00 +13°C° 0 mm 1 mps 594 mmHg 60%
    05:00 +12°C° 0 mm 1 mps 594 mmHg 57%
    06:00 +14°C° 0 mm 1 mps 595 mmHg 56%
    07:00 +15°C° 0 mm 1 mps 597 mmHg 56%
    08:00 +16°C° 0 mm 1 mps 598 mmHg 55%
    09:00 +19°C° 0 mm 1 mps 599 mmHg 52%
    10:00 +20°C° 0 mm 1 mps 599 mmHg 48%
    11:00 +21°C° 0 mm 2 mps 600 mmHg 44%
    12:00 +21°C° 0 mm 2 mps 599 mmHg 46%
    13:00 +22°C° 0 mm 3 mps 599 mmHg 48%
    14:00 +22°C° 0 mm 3 mps 598 mmHg 50%
    15:00 +21°C° 0.3 mm 3 mps 598 mmHg 59%
    16:00 +20°C° 0.3 mm 3 mps 597 mmHg 67%
    17:00 +19°C° 0.3 mm 3 mps 597 mmHg 76%
    18:00 +18°C° 0.1 mm 2 mps 597 mmHg 81%
    19:00 +17°C° 0.1 mm 2 mps 597 mmHg 86%
    20:00 +16°C° 0.1 mm 2 mps 597 mmHg 91%
    21:00 +16°C° 0 mm 2 mps 597 mmHg 91%
    22:00 +16°C° 0 mm 2 mps 598 mmHg 92%
    23:00 +15°C° 0 mm 2 mps 598 mmHg 92%

    28 May, Monday

    Time Temperature Precipitation Wind Pressure Humidity
    00:00 +14°C° 0 mm 3 mps 597 mmHg 91%
    01:00 +14°C° 0 mm 3 mps 596 mmHg 91%
    02:00 +13°C° 0 mm 3 mps 596 mmHg 90%
    03:00 +13°C° 0 mm 3 mps 596 mmHg 88%
    04:00 +13°C° 0 mm 3 mps 595 mmHg 86%
    05:00 +13°C° 0 mm 3 mps 595 mmHg 85%
    06:00 +14°C° 0 mm 3 mps 596 mmHg 79%
    07:00 +14°C° 0 mm 4 mps 596 mmHg 73%
    08:00 +15°C° 0 mm 4 mps 597 mmHg 68%
    09:00 +18°C° 0 mm 4 mps 597 mmHg 53%
    10:00 +21°C° 0 mm 4 mps 598 mmHg 39%
    11:00 +25°C° 0 mm 4 mps 598 mmHg 24%
    12:00 +26°C° 0 mm 4 mps 598 mmHg 22%
    13:00 +27°C° 0 mm 3 mps 597 mmHg 19%
    14:00 +28°C° 0 mm 3 mps 597 mmHg 16%
    15:00 +26°C° 0 mm 3 mps 596 mmHg 24%
    16:00 +25°C° 0 mm 3 mps 596 mmHg 32%
    17:00 +24°C° 0 mm 2 mps 595 mmHg 40%
    18:00 +21°C° 0 mm 2 mps 595 mmHg 50%
    19:00 +19°C° 0 mm 2 mps 595 mmHg 61%
    20:00 +18°C° 0 mm 1 mps 594 mmHg 72%
    21:00 +17°C° 0 mm 2 mps 595 mmHg 66%
    22:00 +17°C° 0 mm 2 mps 595 mmHg 60%
    23:00 +16°C° 0 mm 3 mps 595 mmHg 55%

    29 May, Tuesday

    Time Temperature Precipitation Wind Pressure Humidity
    00:00 +16°C° 0 mm 3 mps 594 mmHg 45%
    01:00 +14°C° 0 mm 3 mps 594 mmHg 35%
    02:00 +14°C° 0 mm 3 mps 594 mmHg 25%
    03:00 +13°C° 0 mm 3 mps 593 mmHg 23%
    04:00 +13°C° 0 mm 4 mps 593 mmHg 21%
    05:00 +12°C° 0 mm 4 mps 593 mmHg 19%
    06:00 +13°C° 0 mm 4 mps 594 mmHg 20%
    07:00 +13°C° 0 mm 4 mps 594 mmHg 20%
    08:00 +14°C° 0 mm 4 mps 595 mmHg 21%
    09:00 +18°C° 0 mm 4 mps 596 mmHg 17%
    10:00 +21°C° 0 mm 3 mps 597 mmHg 14%
    11:00 +26°C° 0 mm 3 mps 597 mmHg 10%
    12:00 +26°C° 0 mm 3 mps 597 mmHg 10%
    13:00 +27°C° 0 mm 3 mps 597 mmHg 9%
    14:00 +28°C° 0 mm 2 mps 596 mmHg 8%
    15:00 +27°C° 0 mm 2 mps 596 mmHg 13%
    16:00 +26°C° 0 mm 2 mps 595 mmHg 18%
    17:00 +24°C° 0 mm 2 mps 594 mmHg 23%
    18:00 +22°C° 0 mm 1 mps 594 mmHg 29%
    19:00 +19°C° 0 mm 1 mps 594 mmHg 34%
    20:00 +16°C° 0 mm 1 mps 593 mmHg 40%
    21:00 +15°C° 0 mm 1 mps 594 mmHg 42%
    22:00 +15°C° 0 mm 1 mps 594 mmHg 44%
    23:00 +14°C° 0 mm 1 mps 594 mmHg 45%

    30 May, Wednesday

    Time Temperature Precipitation Wind Pressure Humidity
    00:00 +14°C° 0 mm 1 mps 594 mmHg 45%
    01:00 +13°C° 0 mm 1 mps 594 mmHg 46%
    02:00 +13°C° 0 mm 1 mps 593 mmHg 46%
    03:00 +13°C° 0 mm 2 mps 593 mmHg 44%
    04:00 +13°C° 0 mm 2 mps 593 mmHg 42%
    05:00 +12°C° 0 mm 2 mps 593 mmHg 41%
    06:00 +13°C° 0 mm 2 mps 594 mmHg 37%
    07:00 +14°C° 0 mm 2 mps 595 mmHg 34%
    08:00 +16°C° 0 mm 2 mps 596 mmHg 31%
    09:00 +18°C° 0 mm 2 mps 596 mmHg 26%
    10:00 +20°C° 0 mm 2 mps 597 mmHg 22%
    11:00 +23°C° 0 mm 2 mps 597 mmHg 17%
    12:00 +24°C° 0 mm 2 mps 597 mmHg 17%
    13:00 +25°C° 0 mm 3 mps 596 mmHg 16%
    14:00 +26°C° 0 mm 3 mps 596 mmHg 16%
    15:00 +25°C° 0 mm 3 mps 595 mmHg 24%
    16:00 +24°C° 0 mm 3 mps 595 mmHg 31%
    17:00 +23°C° 0 mm 2 mps 594 mmHg 39%
    18:00 +19°C° 0 mm 2 mps 594 mmHg 52%
    19:00 +18°C° 0 mm 1 mps 594 mmHg 65%
    20:00 +15°C° 0 mm 1 mps 594 mmHg 78%
    21:00 +15°C° 0.1 mm 1 mps 594 mmHg 82%
    22:00 +15°C° 0.1 mm 1 mps 594 mmHg 85%
    23:00 +15°C° 0.1 mm 1 mps 595 mmHg 89%
    Show more